UTA565 USMU-USMQ

Flight info

Callsign UTA565
Flight time 0h 52m
Altitude FL050
Route OTNOR W258 OKATU
Aircraft C208/L-S/N

Departure

Time 2026-04-16 11:53
Airport Novy Urengoy Airport (USMU)

Arrival

Time 2026-04-16 12:46
Airport Yamburg Airport (USMQ)
Time Latitude Longitude Altitude Speed Heading
2026-04-16 11:49 66.07266 76.52033 215 ft 0 kts 17°
2026-04-16 11:49 66.07275 76.51998 217 ft 8 kts 188°
2026-04-16 11:49 66.07223 76.51956 215 ft 8 kts 239°
2026-04-16 11:50 66.07241 76.51730 219 ft 20 kts 287°
2026-04-16 11:50 66.07295 76.51314 215 ft 29 kts 286°
2026-04-16 11:50 66.07341 76.50956 215 ft 13 kts 286°
2026-04-16 11:50 66.07362 76.50735 215 ft 11 kts 258°
2026-04-16 11:51 66.07286 76.50624 215 ft 18 kts 200°
2026-04-16 11:51 66.07175 76.50615 212 ft 17 kts 119°
2026-04-16 11:51 66.07166 76.50675 217 ft 0 kts 106°
2026-04-16 11:52 66.07164 76.50696 214 ft 7 kts 107°
2026-04-16 11:52 66.07092 76.51272 216 ft 71 kts 107°
2026-04-16 11:52 66.06890 76.52809 325 ft 108 kts 106°
2026-04-16 11:53 66.06610 76.54698 527 ft 129 kts 102°
2026-04-16 11:53 66.06497 76.56912 734 ft 133 kts 73°
2026-04-16 11:53 66.06987 76.58733 987 ft 129 kts 37°
2026-04-16 11:53 66.07387 76.60755 1210 ft 138 kts 72°
2026-04-16 11:54 66.07909 76.62507 1440 ft 128 kts 20°
2026-04-16 11:54 66.08773 76.62930 1659 ft 128 kts
2026-04-16 11:54 66.09654 76.63175 1867 ft 129 kts 352°
2026-04-16 11:54 66.10477 76.62279 2079 ft 131 kts 336°
2026-04-16 11:55 66.11234 76.60992 2281 ft 137 kts 318°
2026-04-16 11:55 66.11832 76.59148 2480 ft 138 kts 314°
2026-04-16 11:55 66.12433 76.57285 2682 ft 140 kts 314°
2026-04-16 11:55 66.13038 76.55409 2879 ft 140 kts 315°
2026-04-16 11:56 66.13643 76.53508 3076 ft 142 kts 315°
2026-04-16 11:56 66.14249 76.51591 3269 ft 143 kts 314°
2026-04-16 11:56 66.14858 76.49654 3466 ft 143 kts 314°
2026-04-16 11:56 66.15464 76.47714 3659 ft 143 kts 314°
2026-04-16 11:57 66.16066 76.45766 3847 ft 143 kts 314°
2026-04-16 11:57 66.16778 76.44190 4025 ft 135 kts 341°
2026-04-16 11:57 66.17675 76.44012 4218 ft 130 kts
2026-04-16 11:57 66.18573 76.43849 4415 ft 132 kts 351°
2026-04-16 11:58 66.19465 76.43298 4615 ft 133 kts 350°
2026-04-16 11:58 66.20358 76.42714 4816 ft 133 kts 349°
2026-04-16 11:58 66.21250 76.42112 5017 ft 133 kts 349°
2026-04-16 11:58 66.22140 76.41499 5207 ft 133 kts 349°
2026-04-16 11:59 66.23045 76.40875 5280 ft 139 kts 349°
2026-04-16 11:59 66.23997 76.40218 5286 ft 145 kts 349°
2026-04-16 11:59 66.24971 76.39537 5288 ft 147 kts 349°
2026-04-16 11:59 66.25955 76.38852 5289 ft 148 kts 349°
2026-04-16 12:00 66.26946 76.38162 5290 ft 148 kts 349°
2026-04-16 12:00 66.27937 76.37472 5288 ft 148 kts 348°
2026-04-16 12:00 66.28929 76.36781 5289 ft 149 kts 348°
2026-04-16 12:00 66.29922 76.36090 5288 ft 149 kts 348°
2026-04-16 12:01 66.30916 76.35398 5291 ft 149 kts 348°
2026-04-16 12:01 66.31909 76.34706 5289 ft 149 kts 348°
2026-04-16 12:01 66.32903 76.34011 5289 ft 149 kts 348°
2026-04-16 12:02 66.34893 76.32622 5292 ft 149 kts 348°
2026-04-16 12:02 66.35889 76.31924 5289 ft 149 kts 348°
2026-04-16 12:02 66.36884 76.31228 5284 ft 149 kts 348°
2026-04-16 12:02 66.37880 76.30530 5287 ft 149 kts 348°
2026-04-16 12:03 66.38873 76.29833 5288 ft 149 kts 348°
2026-04-16 12:03 66.39870 76.29135 5284 ft 149 kts 348°
2026-04-16 12:03 66.40865 76.28435 5279 ft 149 kts 349°
2026-04-16 12:03 66.41861 76.27735 5282 ft 149 kts 348°
2026-04-16 12:04 66.42856 76.27034 5282 ft 149 kts 348°
2026-04-16 12:04 66.43854 76.26333 5276 ft 149 kts 348°
2026-04-16 12:04 66.44848 76.25631 5276 ft 149 kts 348°
2026-04-16 12:04 66.45843 76.24929 5278 ft 149 kts 349°
2026-04-16 12:05 66.46837 76.24228 5279 ft 149 kts 349°
2026-04-16 12:05 66.47832 76.23525 5284 ft 149 kts 348°
2026-04-16 12:05 66.48826 76.22823 5283 ft 149 kts 348°
2026-04-16 12:05 66.49821 76.22118 5280 ft 149 kts 348°
2026-04-16 12:06 66.50817 76.21412 5277 ft 149 kts 348°
2026-04-16 12:06 66.51810 76.20709 5286 ft 149 kts 348°
2026-04-16 12:06 66.52805 76.20004 5283 ft 149 kts 349°
2026-04-16 12:06 66.53800 76.19297 5283 ft 149 kts 348°
2026-04-16 12:07 66.54796 76.18590 5281 ft 149 kts 348°
2026-04-16 12:07 66.55792 76.17882 5283 ft 149 kts 348°
2026-04-16 12:07 66.56788 76.17172 5283 ft 149 kts 348°
2026-04-16 12:07 66.57786 76.16462 5285 ft 149 kts 348°
2026-04-16 12:08 66.58784 76.15751 5288 ft 149 kts 348°
2026-04-16 12:08 66.59781 76.15041 5283 ft 149 kts 348°
2026-04-16 12:08 66.60777 76.14328 5282 ft 149 kts 348°
2026-04-16 12:08 66.61775 76.13615 5284 ft 149 kts 348°
2026-04-16 12:09 66.62770 76.12904 5281 ft 149 kts 348°
2026-04-16 12:09 66.63767 76.12190 5284 ft 149 kts 348°
2026-04-16 12:09 66.64763 76.11476 5281 ft 149 kts 348°
2026-04-16 12:09 66.65758 76.10763 5283 ft 149 kts 348°
2026-04-16 12:10 66.66754 76.10049 5283 ft 149 kts 348°
2026-04-16 12:10 66.67751 76.09332 5282 ft 149 kts 348°
2026-04-16 12:10 66.68750 76.08615 5282 ft 150 kts 348°
2026-04-16 12:10 66.69749 76.07895 5281 ft 150 kts 348°
2026-04-16 12:11 66.70749 76.07175 5282 ft 150 kts 348°
2026-04-16 12:11 66.71749 76.06456 5283 ft 150 kts 348°
2026-04-16 12:11 66.72749 76.05733 5285 ft 150 kts 348°
2026-04-16 12:11 66.73750 76.05011 5279 ft 150 kts 348°
2026-04-16 12:12 66.74751 76.04288 5283 ft 150 kts 348°
2026-04-16 12:12 66.75749 76.03565 5283 ft 150 kts 348°
2026-04-16 12:12 66.76747 76.02843 5288 ft 149 kts 348°
2026-04-16 12:12 66.77745 76.02121 5287 ft 149 kts 348°
2026-04-16 12:13 66.78742 76.01399 5285 ft 149 kts 348°
2026-04-16 12:13 66.79740 76.00674 5286 ft 149 kts 348°
2026-04-16 12:13 66.80739 75.99949 5286 ft 150 kts 348°
2026-04-16 12:13 66.81741 75.99222 5282 ft 150 kts 348°
2026-04-16 12:14 66.82740 75.98495 5279 ft 150 kts 349°
2026-04-16 12:14 66.83740 75.97766 5282 ft 150 kts 348°
2026-04-16 12:14 66.84742 75.97037 5283 ft 150 kts 348°
2026-04-16 12:14 66.85741 75.96307 5289 ft 150 kts 348°
2026-04-16 12:15 66.86743 75.95576 5288 ft 150 kts 348°
2026-04-16 12:15 66.87744 75.94845 5289 ft 150 kts 348°
2026-04-16 12:15 66.88747 75.94112 5287 ft 150 kts 348°
2026-04-16 12:15 66.89750 75.93378 5288 ft 150 kts 348°
2026-04-16 12:16 66.90753 75.92644 5288 ft 150 kts 348°
2026-04-16 12:16 66.91756 75.91908 5287 ft 151 kts 348°
2026-04-16 12:16 66.92762 75.91170 5286 ft 150 kts 348°
2026-04-16 12:16 66.93765 75.90435 5286 ft 151 kts 348°
2026-04-16 12:17 66.94771 75.89694 5283 ft 151 kts 348°
2026-04-16 12:17 66.95776 75.88955 5289 ft 151 kts 348°
2026-04-16 12:17 66.96779 75.88217 5287 ft 150 kts 349°
2026-04-16 12:17 66.97783 75.87477 5290 ft 151 kts 348°
2026-04-16 12:18 66.98788 75.86735 5289 ft 151 kts 348°
2026-04-16 12:18 66.99794 75.85993 5290 ft 151 kts 348°
2026-04-16 12:18 67.00796 75.85253 5286 ft 150 kts 348°
2026-04-16 12:18 67.01801 75.84511 5288 ft 150 kts 348°
2026-04-16 12:19 67.02805 75.83768 5290 ft 150 kts 348°
2026-04-16 12:19 67.03808 75.83025 5292 ft 150 kts 348°
2026-04-16 12:19 67.04812 75.82281 5292 ft 151 kts 348°
2026-04-16 12:19 67.05815 75.81536 5287 ft 150 kts 348°
2026-04-16 12:20 67.06819 75.80791 5293 ft 150 kts 348°
2026-04-16 12:20 67.07822 75.80047 5289 ft 150 kts 348°
2026-04-16 12:20 67.08825 75.79299 5285 ft 151 kts 349°
2026-04-16 12:20 67.09830 75.78552 5291 ft 151 kts 348°
2026-04-16 12:21 67.10836 75.77802 5290 ft 151 kts 348°
2026-04-16 12:21 67.11841 75.77052 5289 ft 151 kts 348°
2026-04-16 12:21 67.12845 75.76303 5289 ft 151 kts 348°
2026-04-16 12:21 67.13850 75.75551 5287 ft 151 kts 348°
2026-04-16 12:22 67.14854 75.74802 5288 ft 150 kts 348°
2026-04-16 12:22 67.15855 75.74053 5290 ft 150 kts 348°
2026-04-16 12:22 67.16857 75.73303 5288 ft 150 kts 348°
2026-04-16 12:22 67.17860 75.72551 5288 ft 150 kts 348°
2026-04-16 12:23 67.18862 75.71799 5289 ft 150 kts 348°
2026-04-16 12:23 67.19864 75.71047 5294 ft 150 kts 348°
2026-04-16 12:23 67.20866 75.70294 5292 ft 151 kts 348°
2026-04-16 12:23 67.21869 75.69539 5291 ft 150 kts 348°
2026-04-16 12:24 67.22872 75.68784 5294 ft 150 kts 348°
2026-04-16 12:24 67.23876 75.68029 5291 ft 150 kts 348°
2026-04-16 12:24 67.24878 75.67273 5295 ft 150 kts 348°
2026-04-16 12:24 67.25881 75.66515 5294 ft 151 kts 348°
2026-04-16 12:25 67.26886 75.65756 5297 ft 151 kts 348°
2026-04-16 12:25 67.27889 75.64997 5296 ft 151 kts 348°
2026-04-16 12:25 67.28893 75.64238 5293 ft 151 kts 348°
2026-04-16 12:25 67.29897 75.63477 5295 ft 151 kts 348°
2026-04-16 12:26 67.30901 75.62716 5293 ft 151 kts 348°
2026-04-16 12:26 67.31903 75.61956 5294 ft 151 kts 348°
2026-04-16 12:26 67.32907 75.61194 5292 ft 150 kts 348°
2026-04-16 12:26 67.33910 75.60431 5298 ft 150 kts 348°
2026-04-16 12:27 67.34911 75.59670 5297 ft 151 kts 348°
2026-04-16 12:27 67.35915 75.58907 5301 ft 150 kts 348°
2026-04-16 12:27 67.36918 75.58141 5296 ft 151 kts 348°
2026-04-16 12:27 67.37922 75.57375 5296 ft 151 kts 348°
2026-04-16 12:28 67.38924 75.56612 5300 ft 151 kts 348°
2026-04-16 12:28 67.39928 75.55844 5295 ft 151 kts 349°
2026-04-16 12:28 67.40933 75.55075 5299 ft 151 kts 348°
2026-04-16 12:28 67.41941 75.54303 5296 ft 151 kts 348°
2026-04-16 12:29 67.42949 75.53530 5297 ft 151 kts 348°
2026-04-16 12:29 67.43957 75.52758 5301 ft 151 kts 349°
2026-04-16 12:29 67.44964 75.51985 5298 ft 151 kts 348°
2026-04-16 12:29 67.45971 75.51212 5297 ft 151 kts 348°
2026-04-16 12:30 67.46979 75.50436 5299 ft 151 kts 348°
2026-04-16 12:30 67.47983 75.49663 5303 ft 151 kts 348°
2026-04-16 12:30 67.48989 75.48890 5297 ft 151 kts 348°
2026-04-16 12:30 67.49992 75.48117 5302 ft 151 kts 348°
2026-04-16 12:31 67.50994 75.47343 5298 ft 151 kts 348°
2026-04-16 12:31 67.51997 75.46569 5298 ft 151 kts 348°
2026-04-16 12:31 67.53000 75.45794 5303 ft 151 kts 349°
2026-04-16 12:31 67.54003 75.45018 5300 ft 151 kts 348°
2026-04-16 12:32 67.55007 75.44241 5304 ft 151 kts 349°
2026-04-16 12:32 67.56009 75.43463 5308 ft 151 kts 349°
2026-04-16 12:32 67.57015 75.42682 5307 ft 151 kts 348°
2026-04-16 12:32 67.58022 75.41901 5308 ft 151 kts 348°
2026-04-16 12:33 67.59028 75.41121 5309 ft 151 kts 348°
2026-04-16 12:33 67.60033 75.40338 5308 ft 151 kts 348°
2026-04-16 12:33 67.61041 75.39554 5310 ft 151 kts 348°
2026-04-16 12:33 67.62047 75.38769 5306 ft 151 kts 348°
2026-04-16 12:34 67.63054 75.37985 5308 ft 151 kts 348°
2026-04-16 12:34 67.64060 75.37200 5308 ft 151 kts 348°
2026-04-16 12:34 67.65067 75.36408 5307 ft 152 kts 348°
2026-04-16 12:34 67.66075 75.35606 5309 ft 152 kts 348°
2026-04-16 12:35 67.67083 75.34806 5306 ft 152 kts 348°
2026-04-16 12:35 67.68091 75.34003 5308 ft 152 kts 348°
2026-04-16 12:35 67.69099 75.33202 5307 ft 152 kts 348°
2026-04-16 12:35 67.70108 75.32399 5304 ft 152 kts 348°
2026-04-16 12:36 67.71117 75.31594 5303 ft 152 kts 348°
2026-04-16 12:36 67.72126 75.30790 5305 ft 152 kts 348°
2026-04-16 12:36 67.73132 75.29988 5309 ft 152 kts 348°
2026-04-16 12:36 67.74139 75.29185 5308 ft 151 kts 348°
2026-04-16 12:37 67.75146 75.28380 5310 ft 152 kts 348°
2026-04-16 12:37 67.76157 75.27562 5290 ft 153 kts 347°
2026-04-16 12:37 67.77098 75.26789 5133 ft 125 kts 350°
2026-04-16 12:37 67.77859 75.26200 4928 ft 107 kts 351°
2026-04-16 12:38 67.78554 75.25659 4618 ft 103 kts 351°
2026-04-16 12:38 67.79230 75.25124 4308 ft 102 kts 351°
2026-04-16 12:38 67.79927 75.24575 3888 ft 106 kts 351°
2026-04-16 12:38 67.80638 75.24004 3481 ft 108 kts 350°
2026-04-16 12:39 67.81356 75.23428 3069 ft 108 kts 350°
2026-04-16 12:39 67.82074 75.22848 2654 ft 108 kts 349°
2026-04-16 12:39 67.82794 75.22269 2241 ft 109 kts 349°
2026-04-16 12:39 67.83515 75.21689 1818 ft 108 kts 348°
2026-04-16 12:40 67.84235 75.21109 1393 ft 108 kts 347°
2026-04-16 12:40 67.84897 75.20571 1302 ft 89 kts 347°
2026-04-16 12:40 67.85436 75.20133 1305 ft 78 kts 348°
2026-04-16 12:40 67.85993 75.19683 1314 ft 90 kts 347°
2026-04-16 12:41 67.86623 75.19174 1328 ft 98 kts 347°
2026-04-16 12:41 67.87258 75.18657 1318 ft 96 kts 347°
2026-04-16 12:41 67.87922 75.18126 1314 ft 102 kts 347°
2026-04-16 12:41 67.88607 75.17569 1317 ft 104 kts 347°
2026-04-16 12:42 67.89303 75.17007 1320 ft 105 kts 347°
2026-04-16 12:42 67.89995 75.16471 1365 ft 97 kts 351°
2026-04-16 12:42 67.90612 75.16195 1489 ft 86 kts 354°
2026-04-16 12:42 67.91223 75.15909 1452 ft 92 kts 353°
2026-04-16 12:43 67.91860 75.15667 1428 ft 93 kts 357°
2026-04-16 12:43 67.92501 75.15500 1421 ft 92 kts 356°
2026-04-16 12:43 67.93133 75.15274 1424 ft 92 kts 355°
2026-04-16 12:43 67.93770 75.14970 1302 ft 95 kts 352°
2026-04-16 12:44 67.94410 75.14551 1175 ft 95 kts 348°
2026-04-16 12:44 67.95032 75.14032 938 ft 91 kts 346°
2026-04-16 12:44 67.95610 75.13480 734 ft 86 kts 340°
2026-04-16 12:44 67.96144 75.12832 643 ft 83 kts 340°
2026-04-16 12:45 67.96677 75.12257 459 ft 83 kts 339°
2026-04-16 12:45 67.97185 75.11643 356 ft 79 kts 337°
2026-04-16 12:45 67.97642 75.11084 207 ft 69 kts 343°
2026-04-16 12:45 67.98048 75.10614 121 ft 58 kts 339°
2026-04-16 12:46 67.98349 75.10274 114 ft 31 kts 339°
2026-04-16 12:46 67.98397 75.10210 115 ft 5 kts 259°
2026-04-16 12:46 67.98313 75.10293 114 ft 15 kts 156°
2026-04-16 12:46 67.98192 75.10301 112 ft 23 kts 226°
2026-04-16 12:47 67.98122 75.09968 111 ft 11 kts 199°
2026-04-16 12:47 67.98085 75.09890 111 ft 7 kts 247°
2026-04-16 12:47 67.98079 75.09854 111 ft 0 kts 245°